Location: Milano
(45.4670°N, 9.2000°E)
Time: 21:11:59
(UTC+02:00)

ISS - Pass Details

Date: 18 May 2021
Orbit: 417 x 422 km, 51.6° (Epoch: 14 June)

Event Time Altitude Azimuth Distance (km) Brightness Sun altitude
Rises 01:16:34 0° 295° (WNW) 2,370 0.4 -25.0°
Reaches altitude 10° 01:18:49 10° 306° (NW) 1,506 -0.5 -25.0°
Maximum altitude 01:21:53 31° 11° (N) 760 -1.9 -25.0°
Enters shadow 01:22:26 29° 32° (NNE) 795 -1.9 -25.0°
